Location: Joplin, MO
(37.0842°N, 94.5133°W)
Time: 14:54:34
(UTC+02:00)

Transit 2A Rocket - All Passes

Search period start: 26 March 2023 00:00
Search period end: 05 April 2023 01:00
Orbit: 583 x 916 km, 66.7° (Epoch: 25 March)

Date Brightness Start Highest point End Pass type
(mag) Time Alt. Az. Time Alt. Az. Time Alt. Az.
26 Mar - 03:21:23 10° N 03:26:12 24° NE 03:30:51 10° E visible
26 Mar - 05:03:17 10° NW 05:09:14 59° WSW 05:14:49 10° S visible
26 Mar - 17:53:39 10° SSE 17:57:36 21° ESE 18:01:47 10° ENE daylight
26 Mar - 19:34:25 10° SW 19:39:40 50° WNW 19:45:24 10° NNE daylight
27 Mar - 02:39:01 10° N 02:42:29 15° NE 02:45:52 10° ENE daylight
27 Mar - 04:19:57 10° NNW 04:26:03 82° ENE 04:31:48 10° SSE visible
27 Mar - 06:05:08 10° WNW 06:07:45 13° W 06:10:19 10° SW visible
27 Mar - 17:13:25 10° ESE 17:14:49 11° E 17:16:14 10° E daylight
27 Mar - 18:50:59 10° SSW 18:56:22 87° WNW 19:02:17 10° NNE daylight
27 Mar - 20:36:41 10° WNW 20:39:55 15° NW 20:43:15 10° N daylight
28 Mar - 03:36:51 10° NNW 03:42:44 49° ENE 03:48:18 10° SE visible
28 Mar - 05:20:15 10° NW 05:24:56 24° WSW 05:29:24 10° SSW visible
28 Mar - 18:08:01 10° S 18:13:13 54° ESE 18:18:54 10° NE daylight
28 Mar - 19:51:46 10° WSW 19:56:12 24° NW 20:00:53 10° N daylight
29 Mar - 02:53:56 10° N 02:59:15 30° NE 03:04:20 10° ESE visible
29 Mar - 04:36:21 10° NW 04:41:59 42° WSW 04:47:17 10° S visible
29 Mar - 17:25:38 10° SSE 17:30:14 30° ESE 17:35:11 10° NE daylight
29 Mar - 19:07:32 10° WSW 19:12:37 38° NW 19:18:07 10° NNE daylight
30 Mar - 02:11:19 10° N 02:15:37 20° NE 02:19:47 10° E daylight
30 Mar - 03:52:50 10° NNW 03:58:54 74° WSW 04:04:33 10° SSE visible
30 Mar - 16:44:05 10° SE 16:47:22 16° ESE 16:50:48 10° ENE daylight
30 Mar - 18:23:50 10° SW 18:29:13 64° WNW 18:35:06 10° NNE daylight
30 Mar - 20:11:01 10° WNW 20:13:05 12° NW 20:15:12 10° NNW daylight
31 Mar - 01:29:18 10° NNE 01:31:49 13° NE 01:34:18 10° ENE daylight
31 Mar - 03:09:36 10° NNW 03:15:39 66° ENE 03:21:19 10° SE visible
31 Mar - 04:53:50 10° WNW 04:57:33 17° WSW 05:01:07 10° SW visible
31 Mar - 17:40:36 10° SSW 17:45:58 75° ESE 17:51:52 10° NNE daylight
31 Mar - 19:25:23 10° W 19:29:16 19° NW 19:33:20 10° N daylight
01 Apr - 02:26:35 10° NNW 02:32:15 39° NE 02:37:37 10° ESE daylight
01 Apr - 04:09:30 10° NW 04:14:40 31° WSW 04:19:32 10° SSW visible
01 Apr - 16:57:51 10° S 17:02:53 42° ESE 17:08:22 10° NE daylight
01 Apr - 18:40:48 10° WSW 18:45:37 29° NW 18:50:45 10° N daylight
02 Apr - 01:43:46 10° N 01:48:41 25° NE 01:53:24 10° ESE daylight
02 Apr - 03:25:48 10° NW 03:31:39 54° WSW 03:37:07 10° S visible
02 Apr - 16:15:45 10° SSE 16:19:56 23° ESE 16:24:25 10° NE daylight
02 Apr - 17:56:49 10° SW 18:02:07 47° WNW 18:07:51 10° NNE daylight
03 Apr - 01:01:20 10° N 01:04:58 16° NE 01:08:31 10° E daylight
03 Apr - 02:42:24 10° NNW 02:48:29 88° ENE 02:54:09 10° SSE daylight
03 Apr - 04:28:07 10° W 04:30:06 12° W 04:32:01 10° WSW visible
03 Apr - 15:34:56 10° SE 15:37:08 12° E 15:39:22 10° ENE daylight
03 Apr - 17:13:19 10° SSW 17:18:46 81° WNW 17:24:43 10° NNE daylight
03 Apr - 18:59:17 10° WNW 19:02:23 15° NW 19:05:34 10° N daylight
04 Apr - 00:20:23 10° NNE 00:21:05 10° NE 00:21:48 10° NE daylight
04 Apr - 01:59:15 10° NNW 02:05:10 52° ENE 02:10:42 10° SE daylight
04 Apr - 03:42:51 10° NW 03:47:17 22° WSW 03:51:30 10° SSW visible
04 Apr - 16:30:16 10° S 16:35:35 58° ESE 16:41:23 10° NE daylight
04 Apr - 18:14:14 10° W 18:18:38 23° NW 18:23:15 10° N daylight
